Skip Navigation Links
NOAA logo - Click to go to the NOAA homepage
NOAA's National Weather Service
Alaska Aviation Weather Unit
  NWS logo - Click to go to the NWS homepage
Left Navbar Graphic     08 AKDT = 16 GMT

   
NOAA is celebrating 200 years of science, service, and stewardship. Visit the NOAA 200th celebration Web site to learn more.
USA.gov is the U.S. Government's official Web portal to all Federal, state and local government Web resources and services.
Facebook
NWS on Facebook

Important Change Regarding the AAWU Web Presence

 

Over the last several months, the AAWU has been working to navigate its webpages to a nationally supported server. Security, as well as other needs, have necessitated the change.  In the process, we have made an effort to enhance the functionality of our website, as well as some of our products. As of June 20, 2017, aawu.arh.noaa.gov will be discontinued. The new AAWU web address is weather.gov/aawu. It is now live and will run in-parallel with the old site until it is discontinued. Please send any feedback or questions regarding the new webpages to nws.ar.aawu.webauthors@noaa.gov.  Thank you for your patience during this time of transition.
AAWU Home :: Display TAF Add Bookmark
TAF PAGS 291120Z 2912/3012 VRB03KT P6SM SCT060 BKN120
     FM291900 21006KT P6SM VCSH BKN050 OVC120
     FM300000 24006KT P6SM BKN035 BKN100
     FM300900 VRB02KT P6SM BKN050
      AMD LTD TO CLD VIS AND WIND=

METAR PAGS 291056Z AUTO 00000KT 10SM FEW075 07/04 A3001 RMK AO2 SLP162 T00720044= METAR PAGS 291156Z AUTO 00000KT 10SM OVC075 08/04 A3002 RMK AO2 SLP166 T00780044 10117 20061 53013= METAR PAGS 291256Z AUTO 16003KT 10SM SCT070 08/05 A3003 RMK AO2 SLP170 T00830050= METAR PAGS 291356Z AUTO 00000KT 10SM BKN065 09/06 A3004 RMK AO2 SLP171 T00940061= METAR PAGS 291456Z AUTO VRB03KT 10SM FEW060 BKN120 09/06 A3004 RMK AO2 SLP174 T00940061 51008= METAR PAGS 291556Z AUTO 19006KT 10SM CLR 10/07 A3005 RMK AO2 SLP175 T01000067=
 Alaska TAF Map

NOAA's National Weather Service
Alaska Aviation Weather Unit
6930 Sand Lake Road
Anchorage, AK 99502-1845
Disclaimer
Credits
Glossary
Privacy Policy
About Us
Career Opportunities
Contact AAWU Internet Services Site last modified: April, 17th 2012